TimeCDT,TemperatureF,Dew PointF,Humidity,Sea Level PressureIn,VisibilityMPH,Wind Direction,Wind SpeedMPH,Gust SpeedMPH,PrecipitationIn,Events,Conditions,WindDirDegrees,DateUTC
12:14 AM,33.8,17.6,52,30.02,10.0,SSW,5.8,-,N/A,,Clear,210,2013-04-24 05:14:00
12:33 AM,33.8,19.4,56,30.02,10.0,West,10.4,-,N/A,,Clear,280,2013-04-24 05:33:00
12:53 AM,33.8,17.6,52,30.02,10.0,South,3.5,-,N/A,,Clear,180,2013-04-24 05:53:00
1:14 AM,32.0,19.4,60,30.01,10.0,South,4.6,-,N/A,,Clear,190,2013-04-24 06:14:00
1:33 AM,28.4,19.4,69,30.01,10.0,SSW,6.9,-,N/A,,Clear,200,2013-04-24 06:33:00
1:54 AM,32.0,19.4,60,30.01,10.0,WSW,8.1,-,N/A,,Clear,240,2013-04-24 06:54:00
2:13 AM,28.4,17.6,64,30.01,10.0,South,5.8,-,N/A,,Clear,190,2013-04-24 07:13:00
2:33 AM,28.4,17.6,64,30.01,10.0,SW,9.2,-,N/A,,Clear,230,2013-04-24 07:33:00
2:54 AM,28.4,17.6,64,30.01,10.0,SW,3.5,-,N/A,,Clear,220,2013-04-24 07:54:00
3:13 AM,30.2,17.6,60,30.00,10.0,South,5.8,-,N/A,,Clear,180,2013-04-24 08:13:00
3:33 AM,28.4,19.4,69,30.00,10.0,South,8.1,-,N/A,,Clear,190,2013-04-24 08:33:00
3:54 AM,26.6,17.6,69,30.00,10.0,SSW,6.9,-,N/A,,Clear,210,2013-04-24 08:54:00
4:13 AM,26.6,17.6,69,30.00,10.0,SSW,5.8,-,N/A,,Clear,210,2013-04-24 09:13:00
4:33 AM,24.8,17.6,74,30.00,10.0,SSW,5.8,-,N/A,,Clear,200,2013-04-24 09:33:00
5:13 AM,24.8,17.6,74,30.00,10.0,SSW,5.8,-,N/A,,Clear,200,2013-04-24 10:13:00
5:33 AM,24.8,17.6,74,29.99,10.0,South,4.6,-,N/A,,Clear,190,2013-04-24 10:33:00
5:54 AM,24.8,17.6,74,29.99,10.0,South,3.5,-,N/A,,Clear,190,2013-04-24 10:54:00
6:13 AM,24.8,17.6,74,29.98,10.0,South,5.8,-,N/A,,Clear,190,2013-04-24 11:13:00
6:33 AM,24.8,17.6,74,29.99,10.0,SW,8.1,-,N/A,,Clear,220,2013-04-24 11:33:00
6:54 AM,26.6,17.6,69,29.99,10.0,SW,8.1,-,N/A,,Scattered Clouds,220,2013-04-24 11:54:00
7:13 AM,26.6,19.4,74,29.99,10.0,SW,5.8,-,N/A,,Mostly Cloudy,220,2013-04-24 12:13:00
7:34 AM,28.4,19.4,69,29.99,10.0,SSW,3.5,-,N/A,,Overcast,200,2013-04-24 12:34:00
7:53 AM,28.4,19.4,69,29.99,10.0,SSW,4.6,-,N/A,,Overcast,210,2013-04-24 12:53:00
8:13 AM,28.4,19.4,69,29.98,10.0,SW,4.6,-,N/A,,Overcast,220,2013-04-24 13:13:00
8:34 AM,30.2,19.4,64,29.98,10.0,SW,5.8,-,N/A,,Overcast,220,2013-04-24 13:34:00
8:53 AM,30.2,21.2,69,29.97,10.0,Calm,Calm,-,N/A,,Overcast,0,2013-04-24 13:53:00
9:13 AM,32.0,21.2,64,29.97,10.0,Calm,Calm,-,N/A,,Overcast,0,2013-04-24 14:13:00
9:34 AM,32.0,21.2,64,29.97,10.0,Calm,Calm,-,N/A,,Mostly Cloudy,0,2013-04-24 14:34:00
9:53 AM,33.8,21.2,60,29.96,10.0,Calm,Calm,-,N/A,,Mostly Cloudy,0,2013-04-24 14:53:00
10:13 AM,32.0,26.6,80,29.95,10.0,East,4.6,-,N/A,,Scattered Clouds,80,2013-04-24 15:13:00
10:53 AM,33.8,26.6,75,29.94,10.0,ENE,4.6,-,N/A,,Clear,70,2013-04-24 15:53:00
11:13 AM,33.8,26.6,75,29.93,10.0,ENE,5.8,-,N/A,,Clear,70,2013-04-24 16:13:00
11:34 AM,33.8,26.6,75,29.93,10.0,NE,5.8,-,N/A,,Clear,50,2013-04-24 16:34:00
11:53 AM,33.8,28.4,81,29.92,10.0,NNE,6.9,-,N/A,,Clear,30,2013-04-24 16:53:00
12:13 PM,35.6,28.4,75,29.92,10.0,ENE,5.8,-,N/A,,Scattered Clouds,70,2013-04-24 17:13:00
12:34 PM,35.6,26.6,70,29.91,10.0,NE,5.8,-,N/A,,Scattered Clouds,50,2013-04-24 17:34:00
12:53 PM,35.6,28.4,75,29.90,10.0,NE,5.8,-,N/A,,Scattered Clouds,50,2013-04-24 17:53:00
1:13 PM,35.6,26.6,70,29.90,10.0,NNE,6.9,-,N/A,,Scattered Clouds,30,2013-04-24 18:13:00
1:33 PM,37.4,28.4,70,29.89,10.0,East,6.9,-,N/A,,Scattered Clouds,90,2013-04-24 18:33:00
1:54 PM,35.6,28.4,75,29.89,10.0,ENE,5.8,-,N/A,,Scattered Clouds,70,2013-04-24 18:54:00
2:14 PM,37.4,28.4,70,29.89,10.0,East,4.6,-,N/A,,Scattered Clouds,100,2013-04-24 19:14:00
2:33 PM,37.4,26.6,65,29.89,10.0,Calm,Calm,-,N/A,,Mostly Cloudy,0,2013-04-24 19:33:00
2:53 PM,37.4,33.8,87,29.90,5.0,SW,13.8,-,N/A,Rain,Light Rain,230,2013-04-24 19:53:00
3:13 PM,37.4,33.8,87,29.90,5.0,WSW,4.6,-,N/A,Rain,Light Rain,250,2013-04-24 20:13:00
3:34 PM,35.6,33.8,93,29.90,10.0,WSW,4.6,-,N/A,Rain,Light Rain,240,2013-04-24 20:34:00
3:53 PM,35.6,33.8,93,29.89,7.0,SSW,3.5,-,N/A,Rain,Light Rain,200,2013-04-24 20:53:00
4:14 PM,35.6,33.8,93,29.89,7.0,Calm,Calm,-,N/A,Rain,Light Rain,0,2013-04-24 21:14:00
4:33 PM,35.6,33.8,93,29.88,5.0,South,3.5,-,N/A,Rain,Light Rain,190,2013-04-24 21:33:00
4:53 PM,35.6,33.8,93,29.88,7.0,South,3.5,-,N/A,,Light Drizzle,190,2013-04-24 21:53:00
5:14 PM,37.4,35.6,93,29.88,7.0,SW,4.6,-,N/A,,Mostly Cloudy,220,2013-04-24 22:14:00
5:33 PM,37.4,35.6,93,29.88,10.0,SSW,5.8,-,N/A,,Mostly Cloudy,210,2013-04-24 22:33:00
5:54 PM,37.4,35.6,93,29.88,10.0,SW,6.9,-,N/A,,Overcast,220,2013-04-24 22:54:00
6:13 PM,37.4,35.6,93,29.88,10.0,WSW,9.2,-,N/A,,Overcast,250,2013-04-24 23:13:00
6:34 PM,37.4,32.0,81,29.88,10.0,West,13.8,-,N/A,,Overcast,270,2013-04-24 23:34:00
6:53 PM,37.4,32.0,81,29.88,10.0,West,9.2,-,N/A,,Overcast,260,2013-04-24 23:53:00
7:14 PM,37.4,30.2,75,29.88,10.0,West,11.5,-,N/A,,Scattered Clouds,260,2013-04-25 00:14:00
7:34 PM,37.4,30.2,75,29.89,10.0,West,8.1,-,N/A,,Scattered Clouds,260,2013-04-25 00:34:00
7:53 PM,37.4,30.2,75,29.89,10.0,West,5.8,-,N/A,,Mostly Cloudy,260,2013-04-25 00:53:00
8:14 PM,37.4,30.2,75,29.90,10.0,Calm,Calm,-,N/A,,Overcast,0,2013-04-25 01:14:00
8:33 PM,37.4,30.2,75,29.90,10.0,Calm,Calm,-,N/A,,Overcast,0,2013-04-25 01:33:00
8:53 PM,37.4,30.2,75,29.91,10.0,Calm,Calm,-,N/A,,Scattered Clouds,0,2013-04-25 01:53:00
9:53 PM,35.6,30.2,81,29.92,10.0,Calm,Calm,-,N/A,,Clear,0,2013-04-25 02:53:00
10:13 PM,35.6,30.2,81,29.93,10.0,West,3.5,-,N/A,,Clear,270,2013-04-25 03:13:00
10:34 PM,33.8,30.2,87,29.94,10.0,Calm,Calm,-,N/A,,Clear,0,2013-04-25 03:34:00
10:53 PM,33.8,30.2,87,29.94,10.0,SW,4.6,-,N/A,,Clear,220,2013-04-25 03:53:00
11:14 PM,33.8,28.4,81,29.94,10.0,Calm,Calm,-,N/A,,Clear,0,2013-04-25 04:14:00
11:34 PM,33.8,28.4,81,29.94,10.0,SW,3.5,-,N/A,,Clear,220,2013-04-25 04:34:00
11:53 PM,32.0,28.4,87,29.94,10.0,SW,3.5,-,N/A,,Clear,220,2013-04-25 04:53:00